Header for Extended Forecast Station List Page

Search by: ID | Name | Date | Parm | Value | Avg | % Avg
Sort by: ID | Name | Date | Parm | Value | Avg | % Avg

Enter search or view all records.

Click on id for station plot
#IDNameDateParmValueAvg% Avg
0ABOM8CLARK FORK-ABOVE MISSOULA01-25-2021DISCHARGE (KAF)66273590
1AFRI1SNAKE-AMERICAN FALLS RESERVOIR01-25-2021INFLOW (KAF)1652196884
2ALFW1PEND OREILLE-ALBENI FALLS DAM01-25-2021INFLOW (KAF)5903697085
3ALPW4SNAKE-NEAR ALPINE01-25-2021DISCHARGE (KAF)54673075
4ANAW1SNAKE-NEAR ANATONE01-25-2021DISCHARGE (KAF)6774986969
5ANTI1HENRYS FORK-AT ST. ANTHONY01-25-2021DISCHARGE (KAF)45149691
6ARAI1SF BOISE-ANDERSON RANCH DAM01-25-2021INFLOW (KAF)26030685
7ARDW1ENTIAT-NEAR ARDENVOIR01-25-2021DISCHARGE (KAF)7573103
8BELM8CLARK FORK-BELOW MISSOULA01-25-2021DISCHARGE (KAF)1148127090
9BERO3MALHEUR-AGENCY VALLEY DAM01-25-2021INFLOW (KAF)335066
10BFEI1KOOTENAI-AT BONNERS FERRY01-25-2021STAGE (FT)MMM
11BFTI1SNAKE-NEAR BLACKFOOT01-25-2021DISCHARGE (KAF)1083126586
12BIGI1BOISE-AT GLENWOOD BRIDGE01-25-2021DISCHARGE (KAF)317249127
13BITM8BITTERROOT-NEAR MISSOULA01-25-2021DISCHARGE (KAF)48552393
14BONM8BLACKFOOT-NEAR BONNER01-25-2021DISCHARGE (KAF)36738396
15BONO3COLUMBIA-BONNEVILLE DAM01-25-2021INFLOW (KAF)422574919486
16BRNI1SNAKE-BROWNLEE DAM01-25-2021INFLOW (KAF)3979540774
17BUDW1BUMPING-BUMPING LAKE DAM01-25-2021INFLOW (KAF)7564117
18BULO3BULLY CREEK-BULLY CREEK DAM01-25-2021INFLOW (KAF)159160
19CABI1CLARK FORK-CABINET GORGE DAM01-25-2021INFLOW (KAF)4719570683
20CFMM8FLATHEAD-AT COLUMBIA FALLS01-25-2021DISCHARGE (KAF)2026214095
21CHDW1CHELAN-LAKE CHELAN DAM01-25-2021INFLOW (KAF)39242193
22CHEI1FALL RIVER-NEAR CHESTER01-25-2021DISCHARGE (KAF)196195100
23CHJW1COLUMBIA-CHIEF JOSEPH DAM01-25-2021INFLOW (KAF)237342537094
24CIBW1COLUMBIA-AT INTL BOUNDARY01-25-2021DISCHARGE (KAF)19978MM
25CLFW1NACHES-NEAR CLIFFDEL01-25-2021DISCHARGE (KAF)254240106
26CLUW1CLE ELUM-CLE ELUM LAKE01-25-2021INFLOW (KAF)266223120
27COEI1COEUR D ALENE-COEUR D ALENE LAKE01-25-2021INFLOW (KAF)2425248398
28CSDI1NF PAYETTE-CASCADE DAM01-25-2021INFLOW (KAF)282279101
29DEDI1DEADWOOD-NEAR LOWMAN01-25-2021INFLOW (KAF)526087
30DLGM8CLARK FORK-AT DEER LODGE01-25-2021DISCHARGE (KAF)7570107
31DRMM8CLARK FORK-NR DRUMMOND01-25-2021DISCHARGE (KAF)158MM
32DWRI1NF CLEARWATER-DWORSHAK DAM01-25-2021INFLOW (KAF)20971945108
33EASW1YAKIMA-AT EASTON01-25-2021DISCHARGE (KAF)9810098
34EMMI1PAYETTE-NEAR EMMETT01-25-2021DISCHARGE (KAF)67883481
35FCFM8NF FLATHEAD-NEAR COLUMBIA FALLS01-25-2021DISCHARGE (KAF)57464389
36GCDW1COLUMBIA-GRAND COULEE DAM01-25-2021INFLOW (KAF)2348622410105
37GIBO3UMATILLA-NEAR GIBBON01-25-2021DISCHARGE (KAF)10283123
38HALI1BIG WOOD-AT HAILEY01-25-2021DISCHARGE (KAF)539855
39HEII1SNAKE-NEAR HEISE01-25-2021DISCHARGE (KAF)13161254105
40HHWM8SF FLATHEAD-HUNGRY HORSE DAM01-25-2021INFLOW (KAF)83388694
41HODO3HOOD-NEAR TUCKER BRIDGE01-25-2021DISCHARGE (KAF)315289109
42HOPI1PEND OREILLE-PEND OREILLE LAKE NR HOPE01-25-2021LAKE ELEVATION (FT)MMM
43HOTI1BRUNEAU-NEAR HOT SPRINGS01-25-2021DISCHARGE (KAF)4912041
44HWRI1BIG LOST-AT HOWELL RANCH NEAR CHILLY01-25-2021DISCHARGE (KAF)274658
45IHDW1SNAKE-ICE HARBOR DAM01-25-2021INFLOW (KAF)116861473379
46IPDI1HENRYS FORK-ISLAND PARK DAM01-25-2021INFLOW (KAF)13815092
47JDAO3COLUMBIA-JOHN DAY DAM01-25-2021INFLOW (KAF)406704508190
48JKSW4SNAKE-NEAR JACKSON01-25-2021DISCHARGE (KAF)39553973
49JLKW4SNAKE-JACKSON LAKE AT DAM01-25-2021INFLOW (KAF)22326185
50KADW1KACHESS-KACHESS DAM01-25-2021INFLOW (KAF)9881121
51KEDW1YAKIMA-KEECHELUS LAKE01-25-2021INFLOW (KAF)10784127
52KERM8FLATHEAD-SELI’Š KSANKA QLISPE’ DAM01-25-2021INFLOW (KAF)2317274684
53KIOW1YAKIMA-AT KIONA01-25-2021DISCHARGE (KAF)90098192
54LAUW1KETTLE-AT LAURIER01-25-2021DISCHARGE (KAF)74789184
55LEOI1KOOTENAI-AT LEONIA01-25-2021DISCHARGE (KAF)30182402126
56LGDW1SNAKE-LOWER GRANITE DAM01-25-2021INFLOW (KAF)114821457879
57LGSW1SNAKE-LITTLE GOOSE DAM01-25-2021INFLOW (KAF)114821463278
58LLKW1SPOKANE-AT LONGLAKE01-25-2021INFLOW (KAF)2621294089
59LMNW1SNAKE-LOWER MONUMENTAL DAM01-25-2021INFLOW (KAF)116861489378
60LUCI1BOISE-LUCKY PEAK DAM01-25-2021INFLOW (KAF)776MM
61LWRI1LITTLE WOOD-LITTLE WOOD DAM01-25-2021INFLOW (KAF)364973
62LYDM8KOOTENAI-LIBBY DAM01-25-2021INFLOW (KAF)1708192189
63MACI1BIG LOST-MACKAY RESERVOIR NEAR MACKAY01-25-2021INFLOW (KAF)313881
64MAGI1BIG WOOD-MAGIC DAM01-25-2021INFLOW (KAF)6715344
65MCDW1COLUMBIA-MCNARY DAM01-25-2021INFLOW (KAF)385534262990
66MILI1SNAKE-AT MILNER01-25-2021DISCHARGE (KAF)487516
67MODO3DESCHUTES-AT MOODY NR BIGGS01-25-2021DISCHARGE (KAF)1468160491
68MONO3NF JOHN DAY-AT MONUMENT01-25-2021DISCHARGE (KAF)48555987
69MYKO3MCKAY CREEK-NEAR PILOT ROCK01-25-2021DISCHARGE (KAF)314174
70NACW1NACHES-NEAR NACHES01-25-2021DISCHARGE (KAF)322289112
71NOXM8CLARK FORK-NOXON RAPIDS DAM01-25-2021INFLOW (KAF)4234544778
72ORFI1CLEARWATER-AT OROFINO01-25-2021DISCHARGE (KAF)2630279194
73OWYO3OWYHEE-OWYHEE DAM01-25-2021INFLOW (KAF)21034561
74PARI1BOISE-NEAR PARMA01-25-2021DISCHARGE (KAF)397360110
75PARW1YAKIMA-NEAR PARKER01-25-2021DISCHARGE (KAF)62262899
76PATW1METHOW-NEAR PATEROS01-25-2021DISCHARGE (KAF)400344117
77PDTO3UMATILLA-AT PENDLETON01-25-2021DISCHARGE (KAF)227198115
78PESW1WENATCHEE-AT PESHASTIN01-25-2021DISCHARGE (KAF)711705101
79PIHI1PORTNEUF-AT POCATELLO01-25-2021DISCHARGE (KAF)6110061
80PITW1KLICKITAT-NEAR PITT01-25-2021DISCHARGE (KAF)47650994
81PLDI1SF SNAKE-PALISADES DAM01-25-2021INFLOW (KAF)935120578
82PRTI1PRIEST-NEAR PRIEST RIVER01-25-2021DISCHARGE (KAF)554493112
83PRWW1COLUMBIA-PRIEST RAPIDS DAM01-25-2021INFLOW (KAF)2583925631101
84RCCM8ROCK CREEK-NEAR CLINTON01-25-2021DISCHARGE (KAF)113105108
85REXI1HENRYS FORK-AT REXBURG01-25-2021DISCHARGE (KAF)49057186
86RIDI1WILLOW CREEK-RIRIE DAM01-25-2021INFLOW (KAF)223759
87RILW1TIETON-RIMROCK LAKE NEAR RIMROCK01-25-2021INFLOW (KAF)11611799
88RRHW1COLUMBIA-ROCKY REACH DAM01-25-2021INFLOW (KAF)251382672494
89SATI1ST MARIES-NEAR SANTA01-25-2021DISCHARGE (KAF)155140110
90SERO3JOHN DAY-AT SERVICE CK01-25-2021DISCHARGE (KAF)66082180
91SHYI1SNAKE-NEAR SHELLEY01-25-2021DISCHARGE (KAF)1302141692
92SIFI1SNAKE-AB EAGLE ROCK NR IDAHO FALLS01-25-2021DISCHARGE (KAF)1375138799
93SJMI1ST JOE-AT ST MARIES01-25-2021STAGE (FT)MMM
94SNAI1SNAKE-AT BLACKFOOT01-25-2021DISCHARGE (KAF)1112124090
95SPDI1CLEARWATER-AT SPALDING01-25-2021DISCHARGE (KAF)47084717100
96SPOW1SPOKANE-AT SPOKANE01-25-2021DISCHARGE (KAF)2290MM
97SRGM8CLARK FORK-AT ST REGIS01-25-2021DISCHARGE (KAF)1517177885
98STRM8ST. REGIS-NEAR ST. REGIS01-25-2021DISCHARGE (KAF)14417881
99SWAI1SNAKE-BELOW SWAN FALLS01-25-2021DISCHARGE (KAF)1766274064
100TCHW1WALLA WALLA-NEAR TOUCHET01-25-2021DISCHARGE (KAF)220219100
101TDAO3COLUMBIA-THE DALLES DAM01-25-2021INFLOW (KAF)411394645489
102TEAI1TETON-NEAR ST. ANTHONY01-25-2021DISCHARGE (KAF)14516389
103TNAW1TEANAWAY-BELOW FORKS01-25-2021DISCHARGE (KAF)151119127
104TONW1OKANOGAN-NEAR TONASKET01-25-2021DISCHARGE (KAF)62965896
105TRYO3GRANDE RONDE-TROY01-25-2021DISCHARGE (KAF)11221011111
106UMAO3UMATILLA-NEAR UMATILLA01-25-2021DISCHARGE (KAF)210176119
107UMTW1YAKIMA-AT UMTANUM01-25-2021DISCHARGE (KAF)554525106
108UNDW1WHITE SALMON-NEAR UNDERWOOD01-25-2021DISCHARGE (KAF)358357100
109WANW1COLUMBIA-WANAPUM DAM01-25-2021INFLOW (KAF)2584125339102
110WEII1SNAKE-AT WEISER01-25-2021DISCHARGE (KAF)3517503270
111WELW1COLUMBIA-WELLS DAM01-25-2021INFLOW (KAF)247422634794
112WGCM8MF FLATHEAD-NEAR WEST GLACIER01-25-2021DISCHARGE (KAF)56161591
113WHBI1SALMON-AT WHITEBIRD01-25-2021DISCHARGE (KAF)1845245475
114WRMO3MALHEUR-WARM SPRINGS DAM01-25-2021INFLOW (KAF)657686
115WSRI1WEISER-NEAR WEISER01-25-2021DISCHARGE (KAF)400385104